sat.trackr.live / text

‹ back to catalog

STARLINK-32393

NORAD 61862 · 2024-202T

PAYLOAD ACTIVE UNKNOWN

§ Identity

Operator
Country
US
Launch date
2024-11-07
Launch site
AFETR
Launch vehicle
Mass (kg)
RCS (m²)

Purposes: comms

External: N2YO · Heavens-Above · Gunter

§ Orbital elements

Epoch: 2026-09-21T21:26:05.224992Z

Period
94.27 min
Inclination
43.0002°
Eccentricity
0.0000783
Mean motion
15.27586862 rev/d
Perigee alt
482.5 km
Apogee alt
483.6 km
Semi-major
6,861.2 km
B*
-1.8624e-5
RAAN
210.0017°
Arg perigee
240.0319°
Mean anomaly
120.0455°
Rev number
10,534

§ Raw data

STARLINK-323931 61862U 24202T   26264.89311603 -.00000774  00000+0 -18624-4 0  99982 61862  43.0002 210.0017 0000783 240.0319 120.0455 15.27586862105342

JSON: /api/v1/satellites/61862 · /tle

For live sub-satellite position, see the globe view (requires WebGL).

§ Visibility from observer

Set your observer location to see the next 7 days of passes ≥ 10°. The values pass through the URL so the page stays shareable.

No JS? Fill the form by hand. The geolocation button needs JavaScript.